| time (UTC) | temp F | wind direction | speed knots | gust knots | rain 1hr in | rain 24hr in | rain mn in | humidity % | barometer mb |
| 20260507180041 | 72 | 170 | 5.2 | 13.0 | 0.00 | 0.00 | 0.00 | 37 | 1014.2 |
| 20260507174548 | 71 | 187 | 4.3 | 11.3 | 0.00 | 0.00 | 0.00 | 37 | 1014.3 |
| 20260507173037 | 71 | 217 | 5.2 | 10.4 | 0.00 | 0.00 | 0.00 | 36 | 1014.4 |
| 20260507171533 | 70 | 221 | 4.3 | 10.4 | 0.00 | 0.00 | 0.00 | 37 | 1014.5 |
| 20260507170031 | 69 | 259 | 5.2 | 9.6 | 0.00 | 0.00 | 0.00 | 36 | 1014.5 |
| 20260507164529 | 68 | 242 | 6.1 | 10.4 | 0.00 | 0.00 | 0.00 | 35 | 1014.6 |
| 20260507163030 | 67 | 234 | 5.2 | 8.7 | 0.00 | 0.00 | 0.00 | 38 | 1014.8 |
| 20260507161529 | 66 | 199 | 4.3 | 9.6 | 0.00 | 0.00 | 0.00 | 41 | 1014.7 |
| 20260507160022 | 65 | 234 | 6.1 | 9.6 | 0.00 | 0.00 | 0.00 | 42 | 1014.8 |
| 20260507154520 | 64 | 221 | 5.2 | 10.4 | 0.00 | 0.00 | 0.00 | 48 | 1014.8 |
| 20260507153022 | 63 | 236 | 6.1 | 10.4 | 0.00 | 0.00 | 0.00 | 50 | 1014.7 |
| 20260507151516 | 62 | 243 | 5.2 | 8.7 | 0.00 | 0.00 | 0.00 | 53 | 1014.9 |
| 20260507150014 | 62 | 217 | 4.3 | 7.0 | 0.00 | 0.00 | 0.00 | 53 | 1014.7 |
| 20260507144515 | 61 | 229 | 5.2 | 10.4 | 0.00 | 0.00 | 0.00 | 55 | 1014.6 |
| 20260507143012 | 60 | 257 | 6.1 | 9.6 | 0.00 | 0.00 | 0.00 | 55 | 1014.6 |
| 20260507141510 | 59 | 230 | 7.0 | 9.6 | 0.00 | 0.00 | 0.00 | 58 | 1014.5 |
| 20260507140009 | 59 | 225 | 3.5 | 6.1 | 0.00 | 0.00 | 0.00 | 61 | 1014.4 |
| 20260507134509 | 57 | 221 | 4.3 | 6.1 | 0.00 | 0.00 | 0.00 | 64 | 1014.2 |
| 20260507133008 | 53 | 209 | 3.5 | 7.0 | 0.00 | 0.00 | 0.00 | 74 | 1014.2 |
| 20260507131515 | 51 | 233 | 2.6 | 3.5 | 0.00 | 0.00 | 0.00 | 77 | 1014.1 |
| 20260507130005 | 49 | 236 | 2.6 | 4.3 | 0.00 | 0.00 | 0.00 | 79 | 1014.0 |
| 20260507124505 | 49 | 192 | 0.9 | 1.7 | 0.00 | 0.00 | 0.00 | 80 | 1014.0 |
| 20260507123003 | 50 | 250 | 0.9 | 2.6 | 0.00 | 0.00 | 0.00 | 78 | 1013.9 |
| 20260507121604 | 49 | 21 | 0.0 | 4.3 | 0.00 | 0.00 | 0.00 | 79 | 1013.8 |
| 20260507114556 | 52 | 148 | 0.9 | 2.6 | 0.00 | 0.00 | 0.00 | 76 | 1013.6 |
| 20260507113055 | 53 | 225 | 4.3 | 7.0 | 0.00 | 0.00 | 0.00 | 74 | 1013.4 |
| 20260507111553 | 53 | 161 | 0.9 | 2.6 | 0.00 | 0.00 | 0.00 | 74 | 1013.6 |
| 20260507111518 | 53 | 163 | 0.9 | 2.6 | 0.00 | 0.00 | 0.00 | 74 | 1013.6 |
| 20260507110052 | 53 | 86 | 1.7 | 2.6 | 0.00 | 0.00 | 0.00 | 74 | 1013.6 |
| 20260507104555 | 53 | 188 | 0.9 | 3.5 | 0.00 | 0.00 | 0.00 | 73 | 1013.5 |
| 20260507103049 | 53 | 208 | 0.0 | 3.5 | 0.00 | 0.00 | 0.00 | 72 | 1013.4 |
| 20260507101557 | 52 | 146 | 1.7 | 3.5 | 0.00 | 0.00 | 0.00 | 75 | 1013.3 |
| 20260507100055 | 55 | 242 | 2.6 | 5.2 | 0.00 | 0.00 | 0.00 | 70 | 1013.0 |
| 20260507094543 | 54 | 189 | 1.7 | 3.5 | 0.00 | 0.00 | 0.00 | 71 | 1013.1 |
| 20260507093042 | 56 | 209 | 0.0 | 2.6 | 0.00 | 0.00 | 0.00 | 69 | 1013.2 |
| 20260507091541 | 54 | 236 | 5.2 | 7.8 | 0.00 | 0.00 | 0.00 | 73 | 1013.0 |
| 20260507090039 | 56 | 215 | 6.1 | 9.6 | 0.00 | 0.00 | 0.00 | 69 | 1013.2 |
| 20260507084544 | 57 | 187 | 4.3 | 9.6 | 0.00 | 0.00 | 0.00 | 67 | 1013.3 |
| 20260507083048 | 56 | 178 | 0.9 | 2.6 | 0.00 | 0.00 | 0.00 | 69 | 1013.2 |
| 20260507081530 | 57 | 159 | 2.6 | 4.3 | 0.00 | 0.00 | 0.00 | 68 | 1013.0 |
| 20260507080029 | 57 | 186 | 1.7 | 3.5 | 0.00 | 0.00 | 0.00 | 67 | 1013.0 |
| 20260507074524 | 60 | 217 | 4.3 | 6.1 | 0.00 | 0.00 | 0.00 | 60 | 1012.9 |
| 20260507073021 | 63 | 235 | 7.0 | 10.4 | 0.00 | 0.00 | 0.00 | 56 | 1012.7 |
| 20260507071518 | 63 | 250 | 3.5 | 7.8 | 0.00 | 0.00 | 0.00 | 56 | 1012.7 |
| 20260507070016 | 61 | 290 | 1.7 | 4.3 | 0.00 | 0.00 | 0.00 | 56 | 1012.5 |
| 20260507064522 | 62 | 218 | 2.6 | 4.3 | 0.00 | 0.00 | 0.00 | 55 | 1012.4 |
| 20260507063019 | 63 | 184 | 2.6 | 6.1 | 0.00 | 0.00 | 0.00 | 53 | 1012.0 |
| 20260507061514 | 66 | 250 | 2.6 | 7.0 | 0.00 | 0.00 | 0.00 | 45 | 1011.9 |
| 20260507060019 | 68 | 221 | 4.3 | 7.8 | 0.00 | 0.00 | 0.00 | 41 | 1011.8 |
| 20260507054513 | 66 | 249 | 4.3 | 6.1 | 0.00 | 0.00 | 0.00 | 45 | 1011.9 |
| 20260507053013 | 67 | 67 | 1.7 | 6.1 | 0.00 | 0.00 | 0.00 | 47 | 1011.8 |
| 20260507051513 | 68 | 111 | 1.7 | 7.8 | 0.00 | 0.00 | 0.00 | 39 | 1011.7 |
| 20260507050012 | 68 | 238 | 5.2 | 7.8 | 0.00 | 0.00 | 0.00 | 37 | 1011.6 |
| 20260507044511 | 69 | 233 | 4.3 | 6.1 | 0.00 | 0.00 | 0.00 | 38 | 1011.7 |
| 20260507043011 | 72 | 346 | 0.9 | 2.6 | 0.00 | 0.00 | 0.00 | 37 | 1011.5 |
| 20260507041525 | 74 | 145 | 0.0 | 3.5 | 0.00 | 0.00 | 0.00 | 32 | 1011.4 |
| 20260507040010 | 75 | 237 | 5.2 | 11.3 | 0.00 | 0.00 | 0.00 | 31 | 1011.1 |
| 20260507034515 | 71 | 225 | 5.2 | 7.0 | 0.00 | 0.00 | 0.00 | 37 | 1011.0 |
| 20260507033009 | 74 | 238 | 2.6 | 5.2 | 0.00 | 0.00 | 0.00 | 33 | 1010.9 |
| 20260507031508 | 73 | 194 | 1.7 | 3.5 | 0.00 | 0.00 | 0.00 | 36 | 1010.8 |
| 20260507030006 | 73 | 103 | 0.0 | 2.6 | 0.00 | 0.00 | 0.00 | 39 | 1010.5 |
| 20260507024507 | 74 | 84 | 0.9 | 2.6 | 0.00 | 0.00 | 0.00 | 39 | 1010.3 |
| 20260507023008 | 76 | 138 | 0.9 | 2.6 | 0.00 | 0.00 | 0.00 | 40 | 1010.2 |
| 20260507021506 | 78 | 304 | 0.9 | 4.3 | 0.00 | 0.00 | 0.00 | 32 | 1010.1 |
| 20260507020006 | 80 | 278 | 2.6 | 8.7 | 0.00 | 0.00 | 0.00 | 30 | 1010.0 |
| 20260507014510 | 78 | 281 | 2.6 | 5.2 | 0.00 | 0.00 | 0.00 | 32 | 1009.8 |
| 20260507013005 | 79 | 315 | 1.7 | 5.2 | 0.00 | 0.00 | 0.00 | 32 | 1009.8 |
| 20260507011504 | 80 | 322 | 0.9 | 5.2 | 0.00 | 0.00 | 0.00 | 35 | 1009.7 |
| 20260507010004 | 80 | 275 | 3.5 | 8.7 | 0.00 | 0.00 | 0.00 | 42 | 1009.4 |
| 20260507004510 | 80 | 163 | 7.8 | 13.0 | 0.00 | 0.00 | 0.00 | 42 | 1009.2 |
| 20260507003003 | 81 | 188 | 8.7 | 14.8 | 0.00 | 0.00 | 0.00 | 41 | 1009.0 |
| 20260507001502 | 81 | 184 | 8.7 | 17.4 | 0.00 | 0.00 | 0.00 | 41 | 1009.0 |
| 20260507000002 | 82 | 175 | 10.4 | 15.6 | 0.00 | 0.00 | 0.00 | 39 | 1008.8 |
| 20260506234501 | 83 | 204 | 11.3 | 17.4 | 0.00 | 0.00 | 0.00 | 34 | 1008.8 |
| 20260506233001 | 84 | 162 | 10.4 | 17.4 | 0.00 | 0.00 | 0.00 | 34 | 1008.8 |
| 20260506231600 | 84 | 205 | 11.3 | 18.2 | 0.00 | 0.00 | 0.00 | 34 | 1008.9 |
| 20260506230100 | 83 | 207 | 7.8 | 17.4 | 0.00 | 0.00 | 0.00 | 35 | 1009.0 |
| 20260506224557 | 83 | 183 | 9.6 | 16.5 | 0.00 | 0.00 | 0.00 | 35 | 1009.4 |
| 20260506223058 | 83 | 205 | 9.6 | 15.6 | 0.00 | 0.00 | 0.00 | 32 | 1009.6 |
| 20260506221555 | 83 | 175 | 7.8 | 14.8 | 0.00 | 0.00 | 0.00 | 32 | 1009.8 |
| 20260506220057 | 85 | 217 | 6.1 | 11.3 | 0.00 | 0.00 | 0.00 | 29 | 1010.0 |
| 20260506214553 | 84 | 207 | 7.0 | 13.0 | 0.00 | 0.00 | 0.00 | 30 | 1010.0 |
| 20260506213108 | 83 | 190 | 7.8 | 16.5 | 0.00 | 0.00 | 0.00 | 31 | 1010.2 |
| 20260506211604 | 83 | 209 | 7.8 | 16.5 | 0.00 | 0.00 | 0.00 | 30 | 1010.4 |
| 20260506210051 | 83 | 166 | 10.4 | 18.2 | 0.00 | 0.00 | 0.00 | 33 | 1010.7 |
| 20260506204556 | 83 | 227 | 8.7 | 13.0 | 0.00 | 0.00 | 0.00 | 33 | 1010.7 |
| 20260506203052 | 83 | 196 | 9.6 | 17.4 | 0.00 | 0.00 | 0.00 | 33 | 1010.8 |
| 20260506201558 | 83 | 188 | 10.4 | 18.2 | 0.00 | 0.00 | 0.00 | 34 | 1010.8 |
| 20260506200048 | 82 | 188 | 14.8 | 20.0 | 0.00 | 0.00 | 0.00 | 34 | 1011.0 |
| 20260506194556 | 82 | 206 | 8.7 | 14.8 | 0.00 | 0.00 | 0.00 | 36 | 1011.2 |
| 20260506193044 | 81 | 191 | 8.7 | 14.8 | 0.00 | 0.00 | 0.00 | 36 | 1011.3 |
| 20260506191545 | 80 | 194 | 8.7 | 15.6 | 0.00 | 0.00 | 0.00 | 39 | 1011.3 |
| 20260506190037 | 79 | 188 | 8.7 | 18.2 | 0.00 | 0.00 | 0.00 | 40 | 1011.3 |
| 20260506184535 | 78 | 180 | 13.0 | 19.1 | 0.00 | 0.00 | 0.00 | 41 | 1011.4 |
| 20260506183042 | 77 | 210 | 9.6 | 17.4 | 0.00 | 0.00 | 0.00 | 43 | 1011.4 |
| 20260506181534 | 77 | 202 | 11.3 | 15.6 | 0.00 | 0.00 | 0.00 | 42 | 1011.6 |